TimeEDT,TemperatureF,Dew PointF,Humidity,Sea Level PressureIn,VisibilityMPH,Wind Direction,Wind SpeedMPH,Gust SpeedMPH,PrecipitationIn,Events,Conditions,WindDirDegrees,DateUTC
12:54 AM,66.9,57.0,70,30.16,10.0,WSW,3.5,-,N/A,,Scattered Clouds,250,2013-08-16 04:54:00
1:54 AM,66.0,53.1,63,30.15,10.0,NW,3.5,-,N/A,,Partly Cloudy,320,2013-08-16 05:54:00
2:54 AM,64.0,53.1,67,30.15,10.0,Calm,Calm,-,N/A,,Clear,0,2013-08-16 06:54:00
3:54 AM,62.1,52.0,70,30.15,10.0,Calm,Calm,-,N/A,,Partly Cloudy,0,2013-08-16 07:54:00
4:54 AM,63.0,55.0,75,30.16,10.0,WSW,3.5,-,N/A,,Clear,240,2013-08-16 08:54:00
5:54 AM,60.1,55.9,86,30.16,10.0,Calm,Calm,-,N/A,,Partly Cloudy,0,2013-08-16 09:54:00
6:54 AM,63.0,55.9,78,30.16,10.0,Calm,Calm,-,N/A,,Scattered Clouds,0,2013-08-16 10:54:00
7:54 AM,66.0,55.0,68,30.17,10.0,Calm,Calm,-,N/A,,Scattered Clouds,0,2013-08-16 11:54:00
8:54 AM,69.1,53.1,57,30.18,10.0,NNW,3.5,-,N/A,,Scattered Clouds,330,2013-08-16 12:54:00
9:54 AM,73.9,54.0,50,30.18,10.0,North,3.5,-,N/A,,Scattered Clouds,360,2013-08-16 13:54:00
10:54 AM,77.0,52.0,42,30.18,10.0,ESE,3.5,-,N/A,,Scattered Clouds,120,2013-08-16 14:54:00
11:54 AM,77.0,51.1,40,30.18,10.0,SE,5.8,-,N/A,,Scattered Clouds,140,2013-08-16 15:54:00
12:54 PM,77.0,48.9,37,30.18,10.0,Calm,Calm,-,N/A,,Scattered Clouds,0,2013-08-16 16:54:00
1:54 PM,78.1,48.0,35,30.17,10.0,Variable,3.5,-,N/A,,Scattered Clouds,0,2013-08-16 17:54:00
2:54 PM,79.0,48.0,34,30.15,10.0,SSE,3.5,-,N/A,,Mostly Cloudy,150,2013-08-16 18:54:00
3:54 PM,80.1,48.9,34,30.15,10.0,Calm,Calm,-,N/A,,Mostly Cloudy,0,2013-08-16 19:54:00
4:54 PM,79.0,48.0,34,30.15,10.0,South,3.5,-,N/A,,Overcast,170,2013-08-16 20:54:00
5:54 PM,78.1,52.0,40,30.16,10.0,SSE,3.5,-,N/A,,Overcast,160,2013-08-16 21:54:00
6:54 PM,77.0,51.1,40,30.17,10.0,South,3.5,-,N/A,,Mostly Cloudy,170,2013-08-16 22:54:00
7:54 PM,73.9,55.9,53,30.17,10.0,South,9.2,-,N/A,,Mostly Cloudy,170,2013-08-16 23:54:00
8:54 PM,70.0,55.9,61,30.20,10.0,SSE,4.6,-,N/A,,Mostly Cloudy,150,2013-08-17 00:54:00
9:54 PM,70.0,55.0,59,30.21,10.0,South,5.8,-,N/A,,Scattered Clouds,190,2013-08-17 01:54:00
10:54 PM,69.1,55.9,63,30.21,10.0,SW,4.6,-,N/A,,Partly Cloudy,220,2013-08-17 02:54:00
11:54 PM,66.9,57.0,70,30.22,10.0,Calm,Calm,-,N/A,,Partly Cloudy,0,2013-08-17 03:54:00